Location: Hormuz
(27.0871°N, 56.4580°E)
Time: 06:06:33
(UTC+04:30)

N. Korean satellite - Visible Passes

Search period start: 09 April 2020 00:00
Search period end: 19 April 2020 00:00
Orbit: 454 x 507 km, 97.2° (Epoch: 08 April)

Date Brightness Start Highest point End Pass type
(mag) Time Alt. Az. Time Alt. Az. Time Alt. Az.
10 Apr 8.4 05:55:45 10° NNE 05:58:52 33° E 06:02:00 10° SSE visible
11 Apr 9.7 05:31:18 10° ENE 05:33:11 14° E 05:35:04 10° SE visible
14 Apr 9.1 05:46:50 10° NE 05:49:43 25° E 05:52:36 10° SSE visible
15 Apr 10.1 05:23:22 10° E 05:24:01 10° E 05:24:40 10° ESE visible
18 Apr 9.5 05:38:02 10° NE 05:40:32 19° E 05:43:03 10° SE visible
